Content
SEND FEEDBACK

Daily
Averages
Monthly
Summary
Canada

QUEBEC CITY, QUEBEC


Home > North America > Canada > Quebec
Elevation: 72 meters     Latitude: 46 48N     Longitude: 071 23W

WEATHER
 
SELECT A DAY
Number of Records: 191,965;   Date Range: 6/30/96 - 7/20/14
 
SHARE

PRINT THIS DATA

[ ← Previous Day ]
WEATHER ALMANAC - 22 FEBRUARY, 2013
[ Next Day → ]
[ °F ]   °C
Weather ElementAverageHighLow
Temperature-6.5 °C-2 °C (1:00 pm)-17.2 °C (7:00 am)
Dewpoint-9.6 °C-6 °C (11:00 am)-18.9 °C (7:00 am)
Humidity82.2 %93 % (9:00 am)67 % (1:00 pm)
Barometer967.5 hPa1032.5 hPa (9:00 am) (7:00 pm)
Wind Speed10.5 km/h22.2 km/h (1:00 am)
Wind Gust29.6 km/h (9:40 pm)
Weather ElementAverage
Visibility24.5 km
Wind DirectionESE (109.1 °)

Weather ElementTotal
Precipitation---
Heating Degree Days27.9 (Base 18.3)
Averaged from 33 records on 22 February, 2013
WEATHER CONDITIONS BREAKOUT
WIND DIRECTION BREAKOUT
WEATHER BY HOUR - 22 FEBRUARY, 2013
[ °F ]   °C
Local TimeTemperatureDewpointHumidityBarometerVisibilityWind DirectionWind SpeedGust SpeedPrecipitationEventsConditions
1:00 AM-8.3 °C-9.4 °C89 %1028.1 hPaWSW (240°)9.3 km/h
1:00 AM-8 °C-11 °C79 %1028.1 hPa24.1 kmSW (230°)22.2 km/hMostly Cloudy
2:00 AM-9 °C-11 °C86 %1029.1 hPa24.1 kmWSW (250°)22.2 km/hMostly Cloudy
3:00 AM-9 °C-11 °C86 %1029.1 hPa24.1 kmSW (230°)7.4 km/hMostly Cloudy
4:00 AM-8.9 °C-10 °C89 %1029.5 hPaESE (110°)5.6 km/h
4:00 AM-9 °C-11 °C86 %1029.5 hPa24.1 kmESE (110°)3.7 km/hMostly Cloudy
5:00 AM-10 °C-12 °C86 %1029.5 hPa24.1 kmCalmMostly Cloudy
6:00 AM-12 °C-15 °C79 %1029.5 hPa24.1 kmCalmPartly Cloudy
7:00 AM-13 °C-15 °C85 %1030.8 hPa16.1 kmCalmMostly Cloudy
7:00 AM-17.2 °C-18.9 °C82 %1030.8 hPaWest (280°)5.6 km/h
8:00 AM-10 °C-12 °C86 %1031.8 hPa19.3 kmWSW (250°)5.6 km/hMostly Cloudy
9:00 AM-8 °C-9 °C93 %1032.5 hPa19.3 kmWest (260°)5.6 km/hMostly Cloudy
10:00 AM-7.2 °C-8.3 °C88 %1032.2 hPaWNW (290°)3.7 km/h
10:00 AM-5 °C-7 °C86 %1032.5 hPa24.1 kmCalmPartly Cloudy
11:00 AM-3 °C-6 °C80 %1031.8 hPa24.1 kmEast (100°)7.4 km/hPartly Cloudy
12:00 PM-3 °C-6 °C80 %1031.2 hPa24.1 kmEast (90°)11.1 km/hPartly Cloudy
1:00 PM-2 °C-6 °C74 %1030.5 hPa24.1 kmEast (90°)18.5 km/hMostly Cloudy
1:00 PM-2.2 °C-6.1 °C67 %1029.8 hPaEast (80°)11.1 km/h
2:00 PM-3 °C-6 °C80 %1030.1 hPa24.1 kmENE (70°)13 km/hMostly Cloudy
3:00 PM-3 °C-6 °C80 %1030.1 hPa32.2 kmENE (70°)13 km/hMostly Cloudy
4:00 PM-3.3 °C-6.7 °C69 %1029.8 hPaEast (90°)9.3 km/h
4:00 PM-3 °C-7 °C74 %1030.1 hPa32.2 kmENE (70°)13 km/hScattered Clouds
5:00 PM-4 °C-7 °C80 %1029.5 hPa32.2 kmENE (60°)13 km/hMostly Cloudy
6:00 PM-5 °C-8 °C80 %1029.1 hPa24.1 kmENE (60°)11.1 km/hScattered Clouds
7:00 PM-6 °C-8 °C86 %1029.1 hPa24.1 kmNE (50°)13 km/hMostly Cloudy
7:00 PM-5.6 °C-7.2 °C84 %1028.8 hPaENE (70°)9.3 km/h
8:00 PM-6 °C-8 °C86 %1028.8 hPa24.1 kmENE (60°)14.8 km/hScattered Clouds
9:00 PM-6 °C-8 °C86 %1028.8 hPa24.1 kmENE (60°)14.8 km/hScattered Clouds
9:40 PM-5 °C-17.8 °C24.1 kmENE (60°)20.4 km/h29.6 km/hMostly Cloudy
10:00 PM-4.4 °C-6.7 °C81 %1028.4 hPaENE (70°)16.7 km/h
10:00 PM-5 °C-8 °C80 %1028.8 hPa24.1 kmENE (60°)18.5 km/h27.8 km/hMostly Cloudy
10:39 PM-5 °C-17.8 °C24.1 kmENE (70°)11.1 km/hMostly Cloudy
11:00 PM-5 °C-8 °C80 %1028.1 hPa24.1 kmENE (70°)13 km/hMostly Cloudy
Hourly data recorded from CYQB, located 0 kilometers away from Quebec City, Quebec







STORIES FROM OUR PARTNERS